[[{"header":{"parameterUnit":"m.s-1","parameterCategory":1,"la1":30.2991,"la2":30.254,"lo1":-89.0895,"lo2":-89.0444,"dy":0.0017,"dx":0.0017,"nx":28,"ny":28,"refTime":"2023-09-10T21:00:00:Z","depth":0,"parameterNumber":2,"parameterNumberName":"U-component_of_WINDS"},"data":[0,0,0,0,0,0,0,0,0,0,0,0,0,0,0,0,0,0,0,0,0,0,0,0,0,0,0,0,0,0,0,0,0,0,0,0,0,0,0,0,0,0,0,0,0,0,0,0,0,0,0,0,0,0,0,0,0,0,-0.8302,-0.8301,0,-0.8202,-0.8201,-0.82,-0.8127,-0.8126,-0.8126,-0.8125,-0.802,-0.8018,-0.8016,0,0,0,0,0,0,0,0,0,0,0,0,0,-0.8426,-0.8425,-0.8302,-0.8301,-0.8299,-0.8202,-0.8201,-0.82,-0.8127,-0.8126,-0.8125,-0.8125,-0.8021,-0.8018,-0.8016,0,0,0,0,0,0,0,0,0,0,0,0,0,-0.8354,-0.8424,-0.8302,-0.8251,-0.8246,-0.8203,-0.8201,-0.8199,-0.8127,-0.8126,-0.8125,-0.8124,-0.8022,-0.8019,-0.8015,-0.8014,0,0,-0.8005,-0.8004,0,0,0,0,0,0,0,0,-0.8358,-0.835,-0.826,-0.8255,-0.8249,-0.8176,-0.8207,-0.8137,-0.8127,-0.8172,-0.8125,-0.8124,-0.8073,-0.8065,-0.8048,-0.8009,-0.8004,-0.8005,-0.8003,-0.8001,-0.8,0,0,0,0,0,0,0,-0.8363,-0.8354,-0.8262,-0.8259,-0.8252,-0.8233,-0.8222,-0.8193,-0.8129,-0.8168,-0.8163,-0.8152,-0.8069,-0.8052,-0.8045,-0.8003,-0.8005,-0.8002,-0.8,-0.7999,-0.7958,-0.7959,0,0,0,0,0,0,-0.8377,-0.8358,-0.8265,-0.8259,-0.8302,-0.8232,-0.8219,-0.82,-0.8129,-0.8117,-0.8153,-0.8149,-0.8058,-0.8049,-0.8041,-0.8035,-0.8001,-0.7998,-0.7996,-0.7957,-0.7958,-0.7959,0,0,0,0,0,0,-0.838,-0.8369,-0.8269,-0.8307,-0.8293,-0.823,-0.821,-0.8199,-0.8181,-0.8117,-0.8105,-0.8147,-0.8057,-0.8046,-0.8022,-0.8031,-0.7997,-0.7994,-0.7956,-0.7957,-0.7958,-0.8024,0,0,0,0,0,0,-0.8384,-0.8371,-0.837,-0.8308,-0.8291,-0.8252,-0.8211,-0.8197,-0.8176,-0.817,-0.8109,-0.8098,-0.8055,-0.8027,-0.8018,-0.8026,-0.7991,-0.7955,-0.7956,-0.7958,-0.802,-0.8027,-0.8033,0,0,0,0,0,-0.8388,-0.8391,-0.837,-0.8359,-0.8289,-0.8253,-0.8243,-0.8195,-0.8177,-0.8175,-0.8135,-0.8099,-0.8031,-0.8025,-0.8015,-0.8021,-0.7954,-0.7956,-0.7958,-0.8017,-0.8026,-0.8033,0,0,0,0,0,0,-0.8454,-0.8382,-0.8358,-0.8341,-0.8304,-0.8241,-0.8237,-0.8205,-0.8172,-0.8167,-0.8108,-0.8095,-0.8077,-0.8046,-0.8041,-0.8016,-0.7988,-0.7988,-0.8037,-0.8044,-0.805,-0.8058,-0.7988,0,0,0,0,0,-0.8467,-0.8445,-0.8382,-0.8373,-0.8356,-0.83,-0.8282,-0.8249,-0.8207,-0.8191,-0.8148,-0.8109,-0.8078,-0.806,-0.8028,-0.8016,-0.8001,-0.8015,-0.8021,-0.8027,-0.8027,-0.802,-0.8025,-0.7965,-0.7965,-0.7965,0,0,-0.8493,-0.8451,-0.844,-0.8385,-0.8353,-0.833,-0.8287,-0.8264,-0.8247,-0.8187,-0.8162,-0.813,-0.8081,-0.8064,-0.8053,-0.8037,-0.8041,-0.8029,-0.8034,-0.8032,-0.8022,-0.8028,-0.8033,-0.7967,-0.7967,-0.7966,0,0,-0.8529,-0.8494,-0.8484,-0.8452,-0.8404,-0.8367,-0.8364,-0.8306,-0.8283,-0.8257,-0.8212,-0.819,-0.8139,-0.8107,-0.8084,-0.8109,-0.8076,-0.8101,-0.8133,-0.8126,-0.8131,-0.8135,-0.8144,-0.8149,-0.8101,-0.8102,-0.8102,0,-0.8567,-0.8532,-0.8482,-0.8463,-0.844,-0.8387,-0.8375,-0.8347,-0.829,-0.8276,-0.8259,-0.8195,-0.8159,-0.8133,-0.814,-0.8122,-0.8118,-0.8107,-0.8134,-0.8138,-0.814,-0.8149,-0.8153,-0.8105,-0.8105,-0.8104,-0.8104,0,-0.8581,-0.8558,-0.8555,-0.8503,-0.848,-0.8465,-0.8413,-0.8396,-0.8365,-0.833,-0.8304,-0.8259,-0.8218,-0.821,-0.8178,-0.818,-0.8172,-0.8145,-0.8116,-0.815,-0.8158,-0.8161,-0.811,-0.8109,-0.8108,-0.8107,0,0,-0.8655,-0.8577,-0.8577,-0.8553,-0.8497,-0.8477,-0.846,-0.8421,-0.8408,-0.8371,-0.8355,-0.8314,-0.829,-0.8264,-0.8229,-0.8223,-0.8247,-0.8197,-0.8195,-0.8208,-0.8247,-0.8267,-0.8272,-0.8225,-0.8225,-0.8225,-0.8251,0,-0.8682,-0.8649,-0.8604,-0.8586,-0.8564,-0.8513,-0.8498,-0.8462,-0.8429,-0.8405,-0.8367,-0.834,-0.831,-0.8294,-0.8286,-0.8246,-0.8254,-0.8243,-0.8209,-0.8208,-0.8223,-0.8275,-0.8297,-0.8323,-0.8253,-0.8254,-0.8254,0,-0.8709,-0.8677,-0.8657,-0.8603,-0.8592,-0.858,-0.8541,-0.8519,-0.8477,-0.8453,-0.8425,-0.8388,-0.8367,-0.8341,-0.8311,-0.8305,-0.8288,-0.8267,-0.8267,-0.8262,-0.8234,-0.8273,-0.833,-0.8335,-0.8258,-0.8258,-0.8257,0,-0.8766,-0.8717,-0.8699,-0.868,-0.8617,-0.861,-0.8583,-0.854,-0.852,-0.8486,-0.8472,-0.8436,-0.8417,-0.8389,-0.8343,-0.8328,-0.8319,-0.8288,-0.8299,-0.83,-0.8299,-0.83,-0.8355,-0.8288,-0.8288,-0.8288,-0.8287,0,-0.8801,-0.8791,-0.8724,-0.8713,-0.8701,-0.8649,-0.8638,-0.8606,-0.8569,-0.855,-0.8504,-0.8488,-0.8427,-0.8404,-0.8368,-0.8349,-0.834,-0.8321,-0.8311,-0.8325,-0.8328,-0.8313,-0.8311,-0.8289,-0.8288,-0.8288,-0.8288,0,-0.8863,-0.8817,-0.8795,-0.8737,-0.8723,-0.8716,-0.8666,-0.8654,-0.8619,-0.8596,-0.8588,-0.8532,-0.8503,-0.8454,-0.8409,-0.8385,-0.8374,-0.8357,-0.8389,-0.8383,-0.8396,-0.8396,-0.8445,-0.8449,-0.8379,-0.838,-0.838,0,-0.8889,-0.888,-0.8822,-0.8807,-0.8783,-0.8759,-0.8739,-0.8688,-0.8669,-0.8621,-0.8614,-0.8581,-0.8552,-0.8507,-0.8463,-0.8429,-0.8411,-0.8431,-0.8406,-0.8421,-0.8413,-0.8414,-0.8413,-0.8437,-0.8438,-0.8439,-0.8439,0,-0.894,-0.8918,-0.8891,-0.8857,-0.8835,-0.8805,-0.8773,-0.8764,-0.8706,-0.8687,-0.8656,-0.8634,-0.859,-0.8558,-0.8518,-0.8489,-0.8455,-0.8448,-0.8449,-0.8463,-0.8482,-0.8473,-0.8405,-0.8447,-0.8446,-0.8446,-0.8445,-0.8445,-0.8984,-0.8975,-0.8933,-0.8905,-0.8876,-0.8848,-0.8834,-0.8797,-0.8772,-0.8732,-0.8704,-0.8676,-0.8634,-0.8578,-0.8551,-0.8529,-0.8513,-0.8514,-0.8514,-0.8515,-0.8521,-0.8485,-0.8521,-0.8521,-0.852,-0.852,-0.852,0,-0.9034,-0.9005,-0.898,-0.8937,-0.8916,-0.8886,-0.8849,-0.8833,-0.881,-0.8774,-0.8747,-0.8713,-0.8682,-0.8636,-0.8601,-0.8592,-0.8576,-0.8585,-0.8585,-0.8579,-0.8536,-0.854,-0.8599,-0.8599,-0.8599,-0.8599,-0.8599,-0.8599,-0.9057,-0.904,-0.9013,-0.8981,-0.8952,-0.8925,-0.8907,-0.8881,-0.8852,-0.8817,-0.8791,-0.8762,-0.8722,-0.8685,-0.8655,-0.8642,-0.8632,-0.8646,-0.8629,-0.8589,-0.8582,-0.8575,-0.8578,-0.8644,-0.8644,-0.8673,-0.8674,-0.8674]},{"header":{"parameterUnit":"m.s-1","parameterCategory":1,"la1":30.2991,"la2":30.254,"lo1":-89.0895,"lo2":-89.0444,"dy":0.0017,"dx":0.0017,"nx":28,"ny":28,"refTime":"2023-09-10T21:00:00:Z","depth":0,"parameterNumber":3,"parameterNumberName":"V-component_of_WINDS"},"data":[0,0,0,0,0,0,0,0,0,0,0,0,0,0,0,0,0,0,0,0,0,0,0,0,0,0,0,0,0,0,0,0,0,0,0,0,0,0,0,0,0,0,0,0,0,0,0,0,0,0,0,0,0,0,0,0,0,0,3.5276,3.5276,0,3.5259,3.5259,3.5259,3.5251,3.5252,3.5252,3.5252,3.5233,3.5232,3.5232,0,0,0,0,0,0,0,0,0,0,0,0,0,3.5299,3.5299,3.5276,3.5276,3.5275,3.5259,3.5259,3.5259,3.5251,3.5252,3.5252,3.5252,3.5233,3.5232,3.5232,0,0,0,0,0,0,0,0,0,0,0,0,0,3.5286,3.5299,3.5276,3.527,3.5269,3.5259,3.5259,3.5258,3.5251,3.5252,3.5252,3.5252,3.5233,3.5233,3.5232,3.5226,0,0,3.5229,3.5229,0,0,0,0,0,0,0,0,3.5287,3.5286,3.5271,3.527,3.527,3.5257,3.526,3.5247,3.5251,3.5258,3.5252,3.5252,3.5241,3.524,3.5236,3.5225,3.5224,3.5229,3.5229,3.5228,3.5228,0,0,0,0,0,0,0,3.5288,3.5286,3.5269,3.5271,3.527,3.5267,3.5266,3.5258,3.5249,3.5258,3.5257,3.5255,3.5241,3.5237,3.5236,3.5224,3.5229,3.5229,3.5228,3.5228,3.5204,3.5204,0,0,0,0,0,0,3.529,3.5287,3.527,3.5269,3.5279,3.5267,3.5265,3.5261,3.525,3.5248,3.5255,3.5255,3.5238,3.5237,3.5235,3.5226,3.5228,3.5228,3.5227,3.5204,3.5204,3.5204,0,0,0,0,0,0,3.5291,3.5289,3.527,3.5278,3.5275,3.5266,3.5262,3.5261,3.5257,3.5248,3.5246,3.5253,3.5238,3.5236,3.5228,3.5225,3.5227,3.5227,3.5205,3.5204,3.5204,3.5208,0,0,0,0,0,0,3.5291,3.5289,3.5287,3.5278,3.5275,3.5264,3.5262,3.5261,3.5256,3.5256,3.5245,3.5244,3.5238,3.5229,3.5227,3.5224,3.5226,3.5205,3.5204,3.5204,3.5208,3.5208,3.5208,0,0,0,0,0,3.5292,3.5289,3.5287,3.5285,3.5273,3.5264,3.5262,3.5256,3.5256,3.5254,3.5247,3.5244,3.5226,3.5228,3.5226,3.5223,3.5205,3.5205,3.5204,3.5208,3.5208,3.5208,0,0,0,0,0,0,3.5299,3.5288,3.5286,3.528,3.5273,3.5263,3.526,3.5257,3.525,3.5249,3.5242,3.5239,3.5231,3.5226,3.5229,3.5215,3.5215,3.5214,3.5219,3.5219,3.5218,3.522,3.5225,0,0,0,0,0,3.53,3.5294,3.5285,3.528,3.5277,3.5269,3.5265,3.5261,3.5253,3.525,3.5243,3.5236,3.5228,3.5223,3.5215,3.5207,3.5204,3.5204,3.5204,3.5204,3.5203,3.5196,3.5195,3.5203,3.5203,3.5203,0,0,3.5301,3.5295,3.5292,3.5282,3.5276,3.5269,3.5267,3.5261,3.5255,3.5249,3.5241,3.5235,3.5226,3.5217,3.5213,3.5212,3.52,3.5203,3.5203,3.5202,3.5196,3.5195,3.5194,3.5203,3.5203,3.5203,0,0,3.5301,3.5296,3.5291,3.5285,3.5276,3.527,3.5269,3.5259,3.5255,3.5246,3.5241,3.5234,3.5222,3.5215,3.5209,3.5204,3.52,3.5202,3.5201,3.5195,3.5194,3.5193,3.519,3.5189,3.5201,3.5201,3.5201,0,3.5304,3.5295,3.5289,3.5282,3.5277,3.5271,3.5265,3.5259,3.5248,3.5244,3.5244,3.5227,3.522,3.5209,3.5207,3.5204,3.5201,3.5203,3.5195,3.5194,3.5193,3.519,3.5189,3.5201,3.5201,3.5201,3.5201,0,3.5298,3.5291,3.5288,3.5278,3.5272,3.5266,3.5258,3.5253,3.5248,3.5242,3.5232,3.5224,3.5214,3.5211,3.5207,3.5198,3.5198,3.5196,3.5196,3.5193,3.5189,3.5188,3.5201,3.5201,3.5201,3.5201,0,0,3.5302,3.5287,3.5286,3.528,3.5269,3.5264,3.5256,3.5246,3.5241,3.5234,3.5226,3.5215,3.5212,3.5206,3.5201,3.5196,3.519,3.5195,3.5194,3.5193,3.5178,3.5178,3.5177,3.5187,3.5187,3.5187,3.5178,0,3.5299,3.5287,3.528,3.527,3.5263,3.5256,3.525,3.5241,3.5235,3.5227,3.522,3.5211,3.521,3.5206,3.52,3.5192,3.5187,3.5193,3.5179,3.5179,3.5181,3.5176,3.5177,3.5169,3.5177,3.5176,3.5176,0,3.5295,3.5287,3.5276,3.5264,3.5261,3.5255,3.5244,3.5237,3.5227,3.5223,3.5215,3.521,3.52,3.52,3.5186,3.519,3.5184,3.5179,3.5178,3.5176,3.5177,3.5173,3.5166,3.5165,3.5174,3.5175,3.5175,0,3.5297,3.5284,3.5275,3.5271,3.5257,3.5253,3.5246,3.5236,3.523,3.522,3.5216,3.5205,3.5199,3.519,3.5181,3.5183,3.5167,3.5167,3.5162,3.5162,3.5159,3.5159,3.5151,3.5156,3.5156,3.5156,3.5156,0,3.5295,3.5288,3.5276,3.5271,3.5262,3.5254,3.5245,3.5238,3.5229,3.5221,3.5215,3.5207,3.5196,3.5187,3.518,3.5168,3.5165,3.516,3.5158,3.5161,3.5161,3.5156,3.5156,3.5156,3.5156,3.5156,3.5156,0,3.5297,3.5288,3.5278,3.5265,3.5262,3.5256,3.5245,3.5238,3.5231,3.5221,3.5218,3.5206,3.5195,3.5185,3.517,3.5165,3.5152,3.515,3.5156,3.5154,3.5149,3.5149,3.5137,3.5134,3.5142,3.5142,3.5142,0,3.5295,3.529,3.5276,3.5271,3.5265,3.5256,3.5249,3.524,3.5233,3.522,3.5215,3.5202,3.5192,3.5174,3.5163,3.5151,3.5148,3.5144,3.5146,3.5148,3.5146,3.5146,3.5145,3.5144,3.5144,3.5144,3.5144,0,3.5293,3.5289,3.528,3.5269,3.5262,3.5253,3.5243,3.5239,3.5228,3.522,3.5208,3.52,3.5184,3.5171,3.5157,3.5149,3.5144,3.5143,3.5141,3.5143,3.5146,3.5143,3.5154,3.5144,3.5144,3.5144,3.5144,3.5144,3.5293,3.5287,3.5276,3.5266,3.5258,3.5249,3.5242,3.5233,3.5223,3.521,3.5204,3.5192,3.5179,3.516,3.5152,3.5141,3.514,3.5137,3.5136,3.5136,3.5135,3.5148,3.5138,3.5138,3.5138,3.5138,3.5138,0,3.5289,3.5282,3.5273,3.5259,3.5251,3.5247,3.5236,3.5229,3.5218,3.5207,3.5197,3.5181,3.5169,3.5156,3.5142,3.5136,3.5133,3.5132,3.5132,3.513,3.5137,3.514,3.5135,3.5135,3.5135,3.5135,3.5135,3.5135,3.5287,3.5276,3.527,3.5255,3.5247,3.5235,3.5229,3.5219,3.521,3.5194,3.5184,3.5176,3.5163,3.5148,3.5136,3.5132,3.5127,3.5127,3.5122,3.5129,3.513,3.513,3.5133,3.5126,3.5126,3.5116,3.5116,3.5116]}]]